Time,TemperatureF,DewpointF,PressureIn,WindDirection,WindDirectionDegrees,WindSpeedMPH,WindSpeedGustMPH,Humidity,HourlyPrecipIn,Conditions,Clouds,dailyrainin,SoftwareType,DateUTC
2013-07-05 00:02:00,59.0,53.0,30.16,SW,223,0.0,-999.0,81,-99.99,,,-99.99,,2013-07-05 07:02:00,
2013-07-05 00:12:00,59.0,53.0,30.16,SW,223,0.0,-999.0,81,-99.99,,,-99.99,,2013-07-05 07:12:00,
2013-07-05 00:23:00,58.0,52.0,30.15,SW,223,0.0,-999.0,81,-99.99,,,-99.99,,2013-07-05 07:23:00,
2013-07-05 00:33:00,58.0,52.0,30.15,SW,223,0.0,-999.0,81,-99.99,,,-99.99,,2013-07-05 07:33:00,
2013-07-05 00:43:00,58.0,52.0,30.15,SW,223,0.0,-999.0,81,-99.99,,,-99.99,,2013-07-05 07:43:00,
2013-07-05 00:53:00,57.0,52.0,30.15,SW,223,0.0,-999.0,83,-99.99,,,-99.99,,2013-07-05 07:53:00,
2013-07-05 01:02:00,57.0,52.0,30.15,SW,223,0.0,-999.0,83,-99.99,,,-99.99,,2013-07-05 08:02:00,
2013-07-05 01:12:00,57.0,52.0,30.15,SW,223,0.0,-999.0,83,-99.99,,,-99.99,,2013-07-05 08:12:00,
2013-07-05 01:22:00,56.0,52.0,30.15,SW,223,1.0,-999.0,85,-99.99,,,-99.99,,2013-07-05 08:22:00,
2013-07-05 01:33:00,56.0,52.0,30.15,SW,223,1.0,-999.0,85,-99.99,,,-99.99,,2013-07-05 08:33:00,
2013-07-05 01:44:00,56.0,52.0,30.15,SW,223,1.0,-999.0,85,-99.99,,,-99.99,,2013-07-05 08:44:00,
2013-07-05 01:55:00,55.0,51.0,30.15,SW,222,0.0,-999.0,87,-99.99,,,-99.99,,2013-07-05 08:55:00,
2013-07-05 02:03:00,55.0,51.0,30.15,SW,222,0.0,-999.0,87,-99.99,,,-99.99,,2013-07-05 09:03:00,
2013-07-05 02:13:00,55.0,51.0,30.15,SW,222,0.0,-999.0,87,-99.99,,,-99.99,,2013-07-05 09:13:00,
2013-07-05 02:24:00,55.0,52.0,30.15,SW,223,0.0,-999.0,88,-99.99,,,-99.99,,2013-07-05 09:24:00,
2013-07-05 02:34:00,55.0,52.0,30.15,SW,223,0.0,-999.0,88,-99.99,,,-99.99,,2013-07-05 09:34:00,
2013-07-05 02:48:00,55.0,52.0,30.15,SW,223,0.0,-999.0,88,-99.99,,,-99.99,,2013-07-05 09:48:00,
2013-07-05 02:55:00,54.0,51.0,30.15,SW,223,0.0,-999.0,89,-99.99,,,-99.99,,2013-07-05 09:55:00,
2013-07-05 03:02:00,54.0,51.0,30.15,SW,223,0.0,-999.0,89,-99.99,,,-99.99,,2013-07-05 10:02:00,
2013-07-05 03:14:00,54.0,51.0,30.15,SW,223,0.0,-999.0,89,-99.99,,,-99.99,,2013-07-05 10:14:00,
2013-07-05 03:23:00,54.0,51.0,30.15,SW,223,0.0,-999.0,89,-99.99,,,-99.99,,2013-07-05 10:23:00,
2013-07-05 03:34:00,54.0,51.0,30.15,SW,222,0.0,-999.0,89,-99.99,,,-99.99,,2013-07-05 10:34:00,
2013-07-05 03:47:00,54.0,51.0,30.15,SW,222,0.0,-999.0,89,-99.99,,,-99.99,,2013-07-05 10:47:00,
2013-07-05 03:57:00,54.0,51.0,30.14,SW,222,0.0,-999.0,90,-99.99,,,-99.99,,2013-07-05 10:57:00,
2013-07-05 04:02:00,54.0,51.0,30.14,SW,222,0.0,-999.0,90,-99.99,,,-99.99,,2013-07-05 11:02:00,
2013-07-05 04:14:00,54.0,51.0,30.14,SW,222,0.0,-999.0,90,-99.99,,,-99.99,,2013-07-05 11:14:00,
2013-07-05 04:23:00,54.0,51.0,30.14,SW,223,0.0,-999.0,89,-99.99,,,-99.99,,2013-07-05 11:23:00,
2013-07-05 04:34:00,54.0,51.0,30.14,SW,223,0.0,-999.0,89,-99.99,,,-99.99,,2013-07-05 11:34:00,
2013-07-05 04:49:00,54.0,51.0,30.14,SW,223,0.0,-999.0,89,-99.99,,,-99.99,,2013-07-05 11:49:00,
2013-07-05 04:58:00,53.0,50.0,30.14,SW,223,0.0,-999.0,90,-99.99,,,-99.99,,2013-07-05 11:58:00,
2013-07-05 05:13:00,53.0,50.0,30.14,SW,223,0.0,-999.0,90,-99.99,,,-99.99,,2013-07-05 12:13:00,
2013-07-05 05:23:00,53.0,50.0,30.14,SW,222,0.0,-999.0,90,-99.99,,,-99.99,,2013-07-05 12:23:00,
2013-07-05 05:33:00,53.0,50.0,30.14,SW,222,0.0,-999.0,90,-99.99,,,-99.99,,2013-07-05 12:33:00,
2013-07-05 05:49:00,53.0,50.0,30.14,SW,222,0.0,-999.0,90,-99.99,,,-99.99,,2013-07-05 12:49:00,
2013-07-05 06:13:00,52.0,49.0,30.14,SW,223,0.0,-999.0,91,-99.99,,,-99.99,,2013-07-05 13:13:00,
2013-07-05 06:35:00,52.0,49.0,30.14,SW,222,0.0,-999.0,90,-99.99,,,-99.99,,2013-07-05 13:35:00,
2013-07-05 06:49:00,52.0,49.0,30.14,SW,222,0.0,-999.0,90,-99.99,,,-99.99,,2013-07-05 13:49:00,
2013-07-05 07:03:00,52.0,50.0,30.15,SW,223,0.0,-999.0,92,-99.99,,,-99.99,,2013-07-05 14:03:00,
2013-07-05 07:12:00,52.0,50.0,30.15,SW,223,0.0,-999.0,92,-99.99,,,-99.99,,2013-07-05 14:12:00,
2013-07-05 07:24:00,52.0,50.0,30.15,SW,223,0.0,-999.0,92,-99.99,,,-99.99,,2013-07-05 14:24:00,
2013-07-05 07:34:00,52.0,50.0,30.14,SW,223,0.0,-999.0,93,-99.99,,,-99.99,,2013-07-05 14:34:00,
2013-07-05 07:47:00,52.0,50.0,30.14,SW,223,0.0,-999.0,93,-99.99,,,-99.99,,2013-07-05 14:47:00,
2013-07-05 07:56:00,52.0,50.0,30.14,SW,223,0.0,-999.0,93,-99.99,,,-99.99,,2013-07-05 14:56:00,
2013-07-05 08:02:00,52.0,50.0,30.14,SW,223,0.0,-999.0,93,-99.99,,,-99.99,,2013-07-05 15:02:00,
2013-07-05 08:25:00,55.0,53.0,30.14,SW,223,0.0,0.0,93,0.00,,,0.00,,2013-07-05 15:25:00,
2013-07-05 08:34:00,55.0,53.0,30.14,SW,223,0.0,0.0,93,0.00,,,0.00,,2013-07-05 15:34:00,
2013-07-05 08:43:00,55.0,53.0,30.14,SW,223,0.0,0.0,93,0.00,,,0.00,,2013-07-05 15:43:00,
2013-07-05 08:53:00,59.0,54.0,30.14,SW,224,1.0,3.0,85,0.00,,,0.00,,2013-07-05 15:53:00,
2013-07-05 09:01:00,59.0,54.0,30.14,SW,224,1.0,3.0,85,0.00,,,0.00,,2013-07-05 16:01:00,
2013-07-05 09:11:00,59.0,54.0,30.14,SW,224,1.0,3.0,85,0.00,,,0.00,,2013-07-05 16:11:00,
2013-07-05 09:22:00,61.0,53.0,30.14,SW,229,2.0,3.0,75,0.00,,,0.00,,2013-07-05 16:22:00,
2013-07-05 09:33:00,61.0,53.0,30.14,SW,229,2.0,3.0,75,0.00,,,0.00,,2013-07-05 16:33:00,
2013-07-05 09:44:00,61.0,53.0,30.14,SW,229,2.0,3.0,75,0.00,,,0.00,,2013-07-05 16:44:00,
2013-07-05 09:53:00,63.0,54.0,30.13,West,268,0.0,4.0,72,0.00,,,0.00,,2013-07-05 16:53:00,
2013-07-05 10:01:00,63.0,54.0,30.13,West,268,0.0,4.0,72,0.00,,,0.00,,2013-07-05 17:01:00,
2013-07-05 10:12:00,63.0,54.0,30.13,West,268,0.0,4.0,72,0.00,,,0.00,,2013-07-05 17:12:00,
2013-07-05 10:32:00,64.0,54.0,30.12,NW,306,0.0,3.0,70,0.00,,,0.00,,2013-07-05 17:32:00,
2013-07-05 10:43:00,64.0,54.0,30.12,NW,306,0.0,3.0,70,0.00,,,0.00,,2013-07-05 17:43:00,
2013-07-05 10:53:00,66.0,56.0,30.11,SE,134,1.0,5.0,69,0.00,,,0.00,,2013-07-05 17:53:00,
2013-07-05 11:01:00,66.0,56.0,30.11,SE,134,1.0,5.0,69,0.00,,,0.00,,2013-07-05 18:01:00,
2013-07-05 11:11:00,66.0,56.0,30.11,SE,134,1.0,5.0,69,0.00,,,0.00,,2013-07-05 18:11:00,
2013-07-05 11:22:00,68.0,56.0,30.11,South,186,1.0,5.0,66,0.00,,,0.00,,2013-07-05 18:22:00,
2013-07-05 11:33:00,68.0,56.0,30.11,South,186,1.0,5.0,66,0.00,,,0.00,,2013-07-05 18:33:00,
2013-07-05 11:43:00,68.0,56.0,30.11,South,186,1.0,5.0,66,0.00,,,0.00,,2013-07-05 18:43:00,
2013-07-05 11:53:00,71.0,57.0,30.10,ESE,113,3.0,7.0,61,0.00,,,0.00,,2013-07-05 18:53:00,
2013-07-05 12:01:00,71.0,57.0,30.10,ESE,113,3.0,7.0,61,0.00,,,0.00,,2013-07-05 19:01:00,
2013-07-05 12:12:00,71.0,57.0,30.10,ESE,113,3.0,7.0,61,0.00,,,0.00,,2013-07-05 19:12:00,
2013-07-05 12:22:00,73.0,58.0,30.10,SE,140,3.0,7.0,59,0.00,,,0.00,,2013-07-05 19:22:00,
2013-07-05 12:33:00,73.0,58.0,30.10,SE,140,3.0,7.0,59,0.00,,,0.00,,2013-07-05 19:33:00,
2013-07-05 12:43:00,73.0,58.0,30.10,SE,140,3.0,7.0,59,0.00,,,0.00,,2013-07-05 19:43:00,
2013-07-05 12:53:00,73.0,58.0,30.10,SE,140,3.0,7.0,59,0.00,,,0.00,,2013-07-05 19:53:00,
2013-07-05 13:01:00,75.0,58.0,30.09,East,79,2.0,6.0,55,0.00,,,0.00,,2013-07-05 20:01:00,
2013-07-05 13:11:00,75.0,58.0,30.09,East,79,2.0,6.0,55,0.00,,,0.00,,2013-07-05 20:11:00,
2013-07-05 13:22:00,75.0,58.0,30.09,East,79,2.0,6.0,55,0.00,,,0.00,,2013-07-05 20:22:00,
2013-07-05 13:33:00,76.0,59.0,30.09,ESE,115,4.0,10.0,55,0.00,,,0.00,,2013-07-05 20:33:00,
2013-07-05 13:43:00,76.0,59.0,30.09,ESE,115,4.0,10.0,55,0.00,,,0.00,,2013-07-05 20:43:00,
2013-07-05 13:53:00,76.0,59.0,30.08,ESE,106,5.0,7.0,55,0.00,,,0.00,,2013-07-05 20:53:00,
2013-07-05 14:01:00,76.0,59.0,30.08,ESE,106,5.0,7.0,55,0.00,,,0.00,,2013-07-05 21:01:00,
2013-07-05 14:11:00,76.0,59.0,30.08,ESE,106,5.0,7.0,55,0.00,,,0.00,,2013-07-05 21:11:00,
2013-07-05 14:34:00,77.0,59.0,30.08,ESE,123,3.0,6.0,54,0.00,,,0.00,,2013-07-05 21:34:00,
2013-07-05 14:43:00,77.0,59.0,30.08,ESE,123,3.0,6.0,54,0.00,,,0.00,,2013-07-05 21:43:00,
2013-07-05 14:53:00,78.0,59.0,30.08,SE,127,2.0,6.0,52,0.00,,,0.00,,2013-07-05 21:53:00,
2013-07-05 15:01:00,78.0,59.0,30.08,SE,127,2.0,6.0,52,0.00,,,0.00,,2013-07-05 22:01:00,
2013-07-05 15:11:00,78.0,59.0,30.08,SE,127,2.0,6.0,52,0.00,,,0.00,,2013-07-05 22:11:00,
2013-07-05 15:33:00,76.0,57.0,30.08,SSW,199,4.0,7.0,52,0.00,,,0.00,,2013-07-05 22:33:00,
2013-07-05 15:43:00,76.0,57.0,30.08,SSW,199,4.0,7.0,52,0.00,,,0.00,,2013-07-05 22:43:00,
2013-07-05 15:53:00,75.0,57.0,30.07,ESE,118,2.0,7.0,54,0.00,,,0.00,,2013-07-05 22:53:00,
2013-07-05 16:02:00,75.0,57.0,30.07,ESE,118,2.0,7.0,54,0.00,,,0.00,,2013-07-05 23:02:00,
2013-07-05 16:11:00,75.0,57.0,30.07,ESE,118,2.0,7.0,54,0.00,,,0.00,,2013-07-05 23:11:00,
2013-07-05 16:32:00,74.0,57.0,30.07,ESE,123,1.0,7.0,55,0.00,,,0.00,,2013-07-05 23:32:00,
2013-07-05 16:43:00,74.0,57.0,30.07,ESE,123,1.0,7.0,55,0.00,,,0.00,,2013-07-05 23:43:00,
2013-07-05 16:53:00,72.0,57.0,30.06,ESE,115,2.0,5.0,59,0.00,,,0.00,,2013-07-05 23:53:00,
2013-07-05 17:01:00,72.0,57.0,30.06,ESE,115,2.0,5.0,59,0.00,,,0.00,,2013-07-06 00:01:00,
2013-07-05 17:11:00,72.0,57.0,30.06,ESE,115,2.0,5.0,59,0.00,,,0.00,,2013-07-06 00:11:00,
2013-07-05 17:22:00,72.0,57.0,30.06,ESE,115,2.0,5.0,59,0.00,,,0.00,,2013-07-06 00:22:00,
2013-07-05 17:33:00,71.0,56.0,30.06,East,101,3.0,6.0,60,0.00,,,0.00,,2013-07-06 00:33:00,
2013-07-05 17:42:00,71.0,56.0,30.06,East,101,3.0,6.0,60,0.00,,,0.00,,2013-07-06 00:42:00,
2013-07-05 17:53:00,69.0,56.0,30.05,SW,230,1.0,12.0,63,0.00,,,0.00,,2013-07-06 00:53:00,
2013-07-05 18:01:00,69.0,56.0,30.05,SW,230,1.0,12.0,63,0.00,,,0.00,,2013-07-06 01:01:00,
2013-07-05 18:12:00,69.0,56.0,30.05,SW,230,1.0,12.0,63,0.00,,,0.00,,2013-07-06 01:12:00,
2013-07-05 18:22:00,68.0,56.0,30.06,ENE,57,1.0,4.0,65,0.00,,,0.00,,2013-07-06 01:22:00,
2013-07-05 18:33:00,68.0,56.0,30.06,ENE,57,1.0,4.0,65,0.00,,,0.00,,2013-07-06 01:33:00,
2013-07-05 18:43:00,68.0,56.0,30.06,ENE,57,1.0,4.0,65,0.00,,,0.00,,2013-07-06 01:43:00,
2013-07-05 18:53:00,68.0,56.0,30.06,ENE,57,1.0,4.0,65,0.00,,,0.00,,2013-07-06 01:53:00,
2013-07-05 19:02:00,66.0,54.0,30.05,NE,34,2.0,6.0,66,0.00,,,0.00,,2013-07-06 02:02:00,
2013-07-05 19:11:00,66.0,54.0,30.05,NE,34,2.0,6.0,66,0.00,,,0.00,,2013-07-06 02:11:00,
2013-07-05 19:33:00,65.0,54.0,30.05,SE,139,3.0,7.0,68,0.00,,,0.00,,2013-07-06 02:33:00,
2013-07-05 19:43:00,65.0,54.0,30.05,SE,139,3.0,7.0,68,0.00,,,0.00,,2013-07-06 02:43:00,
2013-07-05 19:53:00,63.0,53.0,30.05,SE,133,2.0,9.0,70,0.00,,,0.00,,2013-07-06 02:53:00,
2013-07-05 20:02:00,63.0,53.0,30.05,SE,133,2.0,9.0,70,0.00,,,0.00,,2013-07-06 03:02:00,
2013-07-05 20:11:00,63.0,53.0,30.05,SE,133,2.0,9.0,70,0.00,,,0.00,,2013-07-06 03:11:00,
2013-07-05 20:22:00,62.0,53.0,30.05,SW,214,1.0,9.0,73,0.00,,,0.00,,2013-07-06 03:22:00,
2013-07-05 20:34:00,62.0,53.0,30.05,SW,214,1.0,9.0,73,0.00,,,0.00,,2013-07-06 03:34:00,
2013-07-05 20:43:00,62.0,53.0,30.05,SW,214,1.0,9.0,73,0.00,,,0.00,,2013-07-06 03:43:00,
2013-07-05 20:53:00,61.0,53.0,30.06,SW,230,0.0,3.0,75,0.00,,,0.00,,2013-07-06 03:53:00,
2013-07-05 21:01:00,61.0,53.0,30.06,SW,230,0.0,3.0,75,0.00,,,0.00,,2013-07-06 04:01:00,
2013-07-05 21:12:00,61.0,53.0,30.06,SW,230,0.0,3.0,75,0.00,,,0.00,,2013-07-06 04:12:00,
2013-07-05 21:22:00,61.0,53.0,30.06,SW,230,0.0,3.0,75,0.00,,,0.00,,2013-07-06 04:22:00,
2013-07-05 21:33:00,61.0,53.0,30.06,SSW,201,0.0,3.0,76,0.00,,,0.00,,2013-07-06 04:33:00,
2013-07-05 21:43:00,61.0,53.0,30.06,SSW,201,0.0,3.0,76,0.00,,,0.00,,2013-07-06 04:43:00,
2013-07-05 21:53:00,60.0,53.0,30.06,South,187,1.0,2.0,77,0.00,,,0.00,,2013-07-06 04:53:00,
2013-07-05 22:02:00,60.0,53.0,30.06,South,187,1.0,2.0,77,0.00,,,0.00,,2013-07-06 05:02:00,
2013-07-05 22:12:00,60.0,53.0,30.06,South,187,1.0,2.0,77,0.00,,,0.00,,2013-07-06 05:12:00,
2013-07-05 22:22:00,59.0,52.0,30.08,SSW,195,0.0,2.0,78,0.00,,,0.00,,2013-07-06 05:22:00,
2013-07-05 22:33:00,59.0,52.0,30.08,SSW,195,0.0,2.0,78,0.00,,,0.00,,2013-07-06 05:33:00,
2013-07-05 22:43:00,59.0,52.0,30.08,SSW,195,0.0,2.0,78,0.00,,,0.00,,2013-07-06 05:43:00,
2013-07-05 22:53:00,58.0,52.0,30.07,SSW,196,0.0,1.0,79,0.00,,,0.00,,2013-07-06 05:53:00,
2013-07-05 23:01:00,58.0,52.0,30.07,SSW,196,0.0,1.0,79,0.00,,,0.00,,2013-07-06 06:01:00,
2013-07-05 23:12:00,58.0,52.0,30.07,SSW,196,0.0,1.0,79,0.00,,,0.00,,2013-07-06 06:12:00,
2013-07-05 23:33:00,58.0,52.0,30.07,SSW,198,1.0,3.0,81,0.00,,,0.00,,2013-07-06 06:33:00,
2013-07-05 23:43:00,58.0,52.0,30.07,SSW,198,1.0,3.0,81,0.00,,,0.00,,2013-07-06 06:43:00,
2013-07-05 23:53:00,57.0,51.0,30.07,SSW,199,0.0,2.0,81,0.00,,,0.00,,2013-07-06 06:53:00,